,,PA_Meas_PMT16A,,PR_Meas_QMR101_102,,RH_Meas_QMH101,,SR_Meas_QMS101,,TA_Meas_QMH101,,GenWind,,GenWind,
time,status,PA,status,PR,status,RH,status,SR,status,TA,status,DirAvg,status,SpdAvg,
2009-10-02, 00:00:05,VALID,918.533,VALID,0,VALID,94.9725,VALID,0.107441,VALID,19.5648,VALID,271,VALID,0.291016,
2009-10-02, 00:01:05,VALID,918.55,VALID,0,VALID,94.7362,VALID,0,VALID,19.5828,VALID,272,VALID,0.780078,
2009-10-02, 00:02:05,VALID,918.502,VALID,0,VALID,94.4084,VALID,0,VALID,19.6623,VALID,272,VALID,0.895703,
2009-10-02, 00:03:05,VALID,918.471,VALID,0,VALID,94.0653,VALID,0,VALID,19.6998,VALID,272,VALID,1.08438,
2009-10-02, 00:04:05,VALID,918.449,VALID,0,VALID,93.9815,VALID,0,VALID,19.7388,VALID,302,VALID,1.18125,
2009-10-02, 00:05:05,VALID,918.431,VALID,0,VALID,93.7223,VALID,0,VALID,19.7778,VALID,3,VALID,0.794141,
2009-10-02, 00:06:05,VALID,918.405,VALID,0,VALID,93.7223,VALID,0.107441,VALID,19.8168,VALID,3,VALID,0.801562,
2009-10-02, 00:07:05,VALID,918.369,VALID,0,VALID,93.829,VALID,0,VALID,19.8168,VALID,3,VALID,0.820313,
2009-10-02, 00:08:05,VALID,918.356,VALID,0,VALID,93.9662,VALID,0,VALID,19.8183,VALID,3,VALID,1.05938,
2009-10-02, 00:09:05,VALID,918.331,VALID,0,VALID,94.0196,VALID,0,VALID,19.7988,VALID,3,VALID,0.997656,
2009-10-02, 00:10:05,VALID,918.335,VALID,0,VALID,94.0348,VALID,0,VALID,19.7988,VALID,3,VALID,0.78125,
2009-10-02, 00:11:05,VALID,918.31,VALID,0,VALID,93.89,VALID,0,VALID,19.7598,VALID,3,VALID,1.15703,
2009-10-02, 00:12:05,VALID,918.266,VALID,0,VALID,94.073,VALID,0,VALID,19.7793,VALID,3,VALID,0.847656,
2009-10-02, 00:13:05,VALID,918.25,VALID,0,VALID,93.9281,VALID,0,VALID,19.7808,VALID,360,VALID,1.12422,
2009-10-02, 00:14:05,VALID,918.225,VALID,0,VALID,93.8747,VALID,0,VALID,19.7808,VALID,353,VALID,1.22148,
2009-10-02, 00:15:05,VALID,918.212,VALID,0,VALID,93.9205,VALID,0,VALID,19.7793,VALID,344,VALID,0.764063,
2009-10-02, 00:16:05,VALID,918.223,VALID,0,VALID,93.7147,VALID,0,VALID,19.8198,VALID,344,VALID,0.888672,
2009-10-02, 00:17:05,VALID,918.162,VALID,0,VALID,93.3868,VALID,0,VALID,19.8183,VALID,344,VALID,0.758984,
2009-10-02, 00:18:05,VALID,918.136,VALID,0,VALID,93.1505,VALID,0,VALID,19.8573,VALID,344,VALID,0.605469,
2009-10-02, 00:19:05,VALID,918.108,VALID,0,VALID,93.0819,VALID,0,VALID,19.8768,VALID,342,VALID,1.4125,
2009-10-02, 00:20:05,VALID,918.104,VALID,0,VALID,93.1581,VALID,0,VALID,19.8768,VALID,342,VALID,0.821875,
2009-10-02, 00:21:05,VALID,918.075,VALID,0,VALID,93.1048,VALID,0,VALID,19.8963,VALID,342,VALID,0.562109,
2009-10-02, 00:22:05,VALID,918.04,VALID,0,VALID,93.1429,VALID,0,VALID,19.8768,VALID,342,VALID,0.00195313,
2009-10-02, 00:23:05,VALID,918.017,VALID,0,VALID,93.0667,VALID,0,VALID,19.9158,VALID,341,VALID,1.30156,
2009-10-02, 00:24:05,VALID,917.993,VALID,0,VALID,92.9828,VALID,0,VALID,19.8963,VALID,340,VALID,0.876562,
2009-10-02, 00:25:05,VALID,917.945,VALID,0,VALID,92.9676,VALID,0,VALID,19.8948,VALID,340,VALID,0.948438,
2009-10-02, 00:26:05,VALID,917.948,VALID,0,VALID,93.1353,VALID,0,VALID,19.8948,VALID,340,VALID,0.664453,
2009-10-02, 00:27:05,VALID,917.934,VALID,0,VALID,93.1581,VALID,0,VALID,19.9158,VALID,340,VALID,0.719531,
2009-10-02, 00:28:05,VALID,917.919,VALID,0,VALID,93.0514,VALID,0,VALID,19.8948,VALID,340,VALID,0.697656,
2009-10-02, 00:29:05,VALID,917.899,VALID,0,VALID,92.9447,VALID,0,VALID,19.9158,VALID,339,VALID,0.5,
2009-10-02, 00:30:05,VALID,917.912,VALID,0,VALID,93.1276,VALID,0,VALID,19.8948,VALID,339,VALID,0.824609,
2009-10-02, 00:31:05,VALID,917.895,VALID,0,VALID,93.1886,VALID,0,VALID,19.9158,VALID,339,VALID,0.483984,
2009-10-02, 00:32:05,VALID,917.916,VALID,0,VALID,93.0667,VALID,0,VALID,19.9158,VALID,339,VALID,0.408203,
2009-10-02, 00:33:05,VALID,917.927,VALID,0,VALID,93.12,VALID,0,VALID,19.8948,VALID,339,VALID,0.561328,
2009-10-02, 00:34:05,VALID,917.92,VALID,0,VALID,93.0743,VALID,0,VALID,19.9158,VALID,339,VALID,0.304297,
2009-10-02, 00:35:05,VALID,917.92,VALID,0,VALID,93.1581,VALID,0,VALID,19.9353,VALID,339,VALID,0,
2009-10-02, 00:36:05,VALID,917.895,VALID,0,VALID,93.0362,VALID,0,VALID,19.9353,VALID,339,VALID,0,
2009-10-02, 00:37:05,VALID,917.898,VALID,0,VALID,92.9828,VALID,0,VALID,19.9353,VALID,339,VALID,0.267578,
2009-10-02, 00:38:05,VALID,917.879,VALID,0,VALID,92.594,VALID,0,VALID,19.9143,VALID,339,VALID,0.471484,
2009-10-02, 00:39:05,VALID,917.869,VALID,0,VALID,92.4339,VALID,0,VALID,19.9548,VALID,339,VALID,0.533203,
2009-10-02, 00:40:05,VALID,917.819,VALID,0,VALID,92.3577,VALID,0,VALID,19.9743,VALID,339,VALID,0.483203,
2009-10-02, 00:41:05,VALID,917.82,VALID,0,VALID,92.1747,VALID,0,VALID,19.9938,VALID,339,VALID,0.5875,
2009-10-02, 00:42:05,VALID,917.8,VALID,0,VALID,92.1137,VALID,0,VALID,20.0133,VALID,338,VALID,0.408984,
2009-10-02, 00:43:05,VALID,917.82,VALID,0,VALID,92.1366,VALID,0,VALID,20.0133,VALID,338,VALID,0.488281,
2009-10-02, 00:44:05,VALID,917.754,VALID,0,VALID,92.0985,VALID,0,VALID,20.0133,VALID,338,VALID,0.399219,
2009-10-02, 00:45:05,VALID,917.761,VALID,0,VALID,92.4034,VALID,0.107441,VALID,20.0133,VALID,338,VALID,0.594922,
2009-10-02, 00:46:05,VALID,917.725,VALID,0,VALID,92.7389,VALID,0,VALID,19.9728,VALID,338,VALID,0.600781,
2009-10-02, 00:47:05,VALID,917.717,VALID,0,VALID,92.9447,VALID,0,VALID,19.9143,VALID,338,VALID,0.391797,
2009-10-02, 00:48:05,VALID,917.702,VALID,0,VALID,93.0743,VALID,0,VALID,19.9158,VALID,338,VALID,0.159375,
2009-10-02, 00:49:05,VALID,917.678,VALID,0,VALID,93.1276,VALID,0,VALID,19.8963,VALID,338,VALID,0,
2009-10-02, 00:50:05,VALID,917.675,VALID,0,VALID,93.1429,VALID,0.107441,VALID,19.8558,VALID,338,VALID,0.153906,
2009-10-02, 00:51:05,VALID,917.631,VALID,0,VALID,93.0133,VALID,0,VALID,19.8378,VALID,338,VALID,0,
2009-10-02, 00:52:04,VALID,917.619,VALID,0,VALID,93.0895,VALID,0,VALID,19.8168,VALID,338,VALID,0.273438,
2009-10-02, 00:53:04,VALID,917.597,VALID,0,VALID,93.2268,VALID,0,VALID,19.7793,VALID,338,VALID,0.273438,
2009-10-02, 00:54:04,VALID,917.575,VALID,0,VALID,93.2268,VALID,0,VALID,19.7808,VALID,338,VALID,0.420703,
2009-10-02, 00:55:04,VALID,917.562,VALID,0,VALID,93.3335,VALID,0,VALID,19.7808,VALID,338,VALID,0.367578,
2009-10-02, 00:56:04,VALID,917.589,VALID,0,VALID,93.3259,VALID,0,VALID,19.7013,VALID,338,VALID,0.339063,
2009-10-02, 00:57:04,VALID,917.559,VALID,0,VALID,93.4326,VALID,0,VALID,19.7208,VALID,338,VALID,0.275391,
2009-10-02, 00:58:04,VALID,917.55,VALID,0,VALID,93.5851,VALID,0,VALID,19.7028,VALID,338,VALID,0.161719,
2009-10-02, 00:59:04,VALID,917.526,VALID,0,VALID,93.6994,VALID,0,VALID,19.6833,VALID,338,VALID,0.220703,
2009-10-02, 01:00:04,VALID,917.505,VALID,0,VALID,93.8138,VALID,0,VALID,19.6833,VALID,338,VALID,0.200391,
2009-10-02, 01:01:04,VALID,917.506,VALID,0,VALID,93.8747,VALID,0,VALID,19.6443,VALID,338,VALID,0.175,
2009-10-02, 01:02:04,VALID,917.485,VALID,0,VALID,93.9891,VALID,0,VALID,19.6038,VALID,338,VALID,0.391797,
2009-10-02, 01:03:04,VALID,917.467,VALID,0,VALID,94.0958,VALID,0,VALID,19.5453,VALID,338,VALID,0.387891,
2009-10-02, 01:04:04,VALID,917.457,VALID,0,VALID,94.2407,VALID,0,VALID,19.5273,VALID,338,VALID,0.314453,
2009-10-02, 01:05:04,VALID,917.434,VALID,0,VALID,94.3626,VALID,0,VALID,19.5078,VALID,338,VALID,0.0777344,
2009-10-02, 01:06:04,VALID,917.443,VALID,0,VALID,94.4313,VALID,0,VALID,19.4883,VALID,338,VALID,0,
2009-10-02, 01:07:04,VALID,917.399,VALID,0,VALID,94.3321,VALID,0,VALID,19.4493,VALID,338,VALID,0,
2009-10-02, 01:08:04,VALID,917.386,VALID,0,VALID,94.4389,VALID,0.107441,VALID,19.4088,VALID,338,VALID,0,
2009-10-02, 01:09:04,VALID,917.351,VALID,0,VALID,94.7057,VALID,0,VALID,19.3698,VALID,338,VALID,0.113672,
2009-10-02, 01:10:04,VALID,917.362,VALID,0,VALID,94.8124,VALID,0,VALID,19.3308,VALID,338,VALID,0,
2009-10-02, 01:11:04,VALID,917.389,VALID,0,VALID,94.9725,VALID,0.107441,VALID,19.2709,VALID,338,VALID,0,
2009-10-02, 01:12:04,VALID,917.395,VALID,0,VALID,95.1631,VALID,0,VALID,19.2723,VALID,338,VALID,0,
2009-10-02, 01:13:04,VALID,917.331,VALID,0,VALID,95.3079,VALID,0,VALID,19.2528,VALID,338,VALID,0.140625,
2009-10-02, 01:14:04,VALID,917.331,VALID,0,VALID,95.4909,VALID,0,VALID,19.2514,VALID,338,VALID,0,
2009-10-02, 01:15:04,VALID,917.298,VALID,0,VALID,95.712,VALID,0,VALID,19.2918,VALID,338,VALID,0.3625,
2009-10-02, 01:16:04,VALID,917.317,VALID,0,VALID,95.7425,VALID,0,VALID,19.3113,VALID,338,VALID,0.169531,
2009-10-02, 01:17:04,VALID,917.3,VALID,0,VALID,95.6586,VALID,0,VALID,19.3308,VALID,338,VALID,0.241016,
2009-10-02, 01:18:04,VALID,917.267,VALID,0,VALID,95.6053,VALID,0,VALID,19.3308,VALID,338,VALID,0.370703,
2009-10-02, 01:19:04,VALID,917.277,VALID,0,VALID,95.6053,VALID,0,VALID,19.3503,VALID,338,VALID,0.584766,
2009-10-02, 01:20:04,VALID,917.251,VALID,0,VALID,95.6281,VALID,0,VALID,19.3698,VALID,338,VALID,0.496875,
2009-10-02, 01:21:04,VALID,917.285,VALID,0,VALID,95.5976,VALID,0,VALID,19.3294,VALID,338,VALID,0.297656,
2009-10-02, 01:22:04,VALID,917.271,VALID,0,VALID,95.5671,VALID,0,VALID,19.3503,VALID,338,VALID,0.135937,
2009-10-02, 01:23:04,VALID,917.277,VALID,0,VALID,95.3461,VALID,0,VALID,19.3503,VALID,338,VALID,0.235156,
2009-10-02, 01:24:04,VALID,917.237,VALID,0,VALID,95.3766,VALID,0,VALID,19.3113,VALID,338,VALID,0.642969,
2009-10-02, 01:25:04,VALID,917.258,VALID,0,VALID,95.5748,VALID,0,VALID,19.3113,VALID,338,VALID,0.628906,
2009-10-02, 01:26:04,VALID,917.279,VALID,0,VALID,95.6815,VALID,0,VALID,19.3323,VALID,338,VALID,0.484766,
2009-10-02, 01:27:04,VALID,917.263,VALID,0,VALID,95.6739,VALID,0,VALID,19.2933,VALID,338,VALID,0.380078,
2009-10-02, 01:28:04,VALID,917.247,VALID,0,VALID,95.712,VALID,0,VALID,19.2528,VALID,338,VALID,0.215625,
2009-10-02, 01:29:04,VALID,917.265,VALID,0,VALID,95.834,VALID,0,VALID,19.2334,VALID,338,VALID,0,
2009-10-02, 01:30:04,VALID,917.248,VALID,0,VALID,95.9178,VALID,0,VALID,19.2139,VALID,338,VALID,0,
2009-10-02, 01:31:04,VALID,917.22,VALID,0,VALID,95.9864,VALID,0,VALID,19.2139,VALID,338,VALID,0.142578,
2009-10-02, 01:32:04,VALID,917.225,VALID,0,VALID,96.1541,VALID,0,VALID,19.2334,VALID,338,VALID,0.175,
2009-10-02, 01:33:04,VALID,917.206,VALID,0,VALID,96.238,VALID,0,VALID,19.2139,VALID,338,VALID,0,
2009-10-02, 01:34:04,VALID,917.22,VALID,0,VALID,95.9254,VALID,0,VALID,19.1958,VALID,338,VALID,0.258203,
2009-10-02, 01:35:04,VALID,917.226,VALID,0,VALID,95.5595,VALID,0,VALID,19.0969,VALID,338,VALID,0,
2009-10-02, 01:36:04,VALID,917.234,VALID,0,VALID,95.9254,VALID,0,VALID,19.0969,VALID,338,VALID,0,
2009-10-02, 01:37:04,VALID,917.203,VALID,0,VALID,96.0245,VALID,0,VALID,19.0969,VALID,338,VALID,0,
2009-10-02, 01:38:04,VALID,917.201,VALID,0,VALID,96.1541,VALID,0,VALID,19.0954,VALID,338,VALID,0,
2009-10-02, 01:39:04,VALID,917.191,VALID,0,VALID,96.2075,VALID,0.107441,VALID,19.0954,VALID,338,VALID,0,
2009-10-02, 01:40:04,VALID,917.198,VALID,0,VALID,96.2685,VALID,0.107441,VALID,19.1164,VALID,338,VALID,0,
2009-10-02, 01:41:04,VALID,917.171,VALID,0,VALID,96.0627,VALID,0.107441,VALID,19.0774,VALID,338,VALID,0,
2009-10-02, 01:42:04,VALID,917.195,VALID,0,VALID,95.9407,VALID,0,VALID,19.0175,VALID,338,VALID,0,
2009-10-02, 01:43:04,VALID,917.207,VALID,0,VALID,96.1541,VALID,0.107441,VALID,19.0384,VALID,338,VALID,0,
2009-10-02, 01:44:04,VALID,917.192,VALID,0,VALID,96.2151,VALID,0.107441,VALID,19.0175,VALID,338,VALID,0,
2009-10-02, 01:45:04,VALID,917.185,VALID,0,VALID,96.3752,VALID,0.107441,VALID,19.0564,VALID,338,VALID,0,
2009-10-02, 01:46:04,VALID,917.185,VALID,0,VALID,96.4591,VALID,0.107441,VALID,19.0774,VALID,338,VALID,0,
2009-10-02, 01:47:04,VALID,917.172,VALID,0,VALID,96.5277,VALID,0.107441,VALID,19.0759,VALID,338,VALID,0.137891,
2009-10-02, 01:48:04,VALID,917.182,VALID,0,VALID,96.5201,VALID,0.107441,VALID,19.0954,VALID,338,VALID,0.157031,
2009-10-02, 01:49:04,VALID,917.128,VALID,0,VALID,96.4362,VALID,0.107441,VALID,19.0759,VALID,338,VALID,0,
2009-10-02, 01:50:04,VALID,917.137,VALID,0,VALID,96.3981,VALID,0.107441,VALID,19.0564,VALID,338,VALID,0,
2009-10-02, 01:51:04,VALID,917.161,VALID,0,VALID,96.3219,VALID,0.107441,VALID,19.0384,VALID,338,VALID,0,
2009-10-02, 01:52:04,VALID,917.123,VALID,0,VALID,96.3829,VALID,0,VALID,19.0175,VALID,338,VALID,0.0496094,
2009-10-02, 01:53:04,VALID,917.072,VALID,0,VALID,96.3905,VALID,0.107441,VALID,19.0175,VALID,338,VALID,0,
2009-10-02, 01:54:04,VALID,917.072,VALID,0,VALID,96.2456,VALID,0.107441,VALID,19.0189,VALID,338,VALID,0,
2009-10-02, 01:55:04,VALID,917.025,VALID,0,VALID,96.0932,VALID,0.107441,VALID,18.959,VALID,338,VALID,0,
2009-10-02, 01:56:04,VALID,917.007,VALID,0,VALID,96.1923,VALID,0.107441,VALID,18.9395,VALID,338,VALID,0.242578,
2009-10-02, 01:57:04,VALID,916.958,VALID,0,VALID,96.36,VALID,0,VALID,18.9604,VALID,338,VALID,0.294531,
2009-10-02, 01:58:04,VALID,916.96,VALID,0,VALID,96.4438,VALID,0.107441,VALID,18.959,VALID,338,VALID,0.629687,
2009-10-02, 01:59:04,VALID,916.978,VALID,0,VALID,96.4591,VALID,0.107441,VALID,18.959,VALID,338,VALID,0.708594,
2009-10-02, 02:00:04,VALID,916.953,VALID,0,VALID,96.5887,VALID,0,VALID,18.959,VALID,337,VALID,0.961719,
2009-10-02, 02:01:04,VALID,916.989,VALID,0,VALID,96.5963,VALID,0,VALID,18.9785,VALID,281,VALID,0.975781,
2009-10-02, 02:02:04,VALID,916.978,VALID,0,VALID,96.6802,VALID,0.107441,VALID,18.998,VALID,174,VALID,1.15117,
2009-10-02, 02:03:04,VALID,916.997,VALID,0,VALID,96.7564,VALID,0.107441,VALID,19.0369,VALID,174,VALID,0.759375,
2009-10-02, 02:04:04,VALID,916.964,VALID,0,VALID,96.825,VALID,0.107441,VALID,19.0969,VALID,174,VALID,0.850391,
2009-10-02, 02:05:04,VALID,916.967,VALID,0,VALID,96.8174,VALID,0.107441,VALID,19.0954,VALID,174,VALID,0.498437,
2009-10-02, 02:06:04,VALID,916.976,VALID,0,VALID,96.7793,VALID,0.107441,VALID,19.0954,VALID,174,VALID,0.515625,
2009-10-02, 02:07:04,VALID,916.956,VALID,0,VALID,96.7564,VALID,0,VALID,19.1149,VALID,174,VALID,0.903906,
2009-10-02, 02:08:04,VALID,916.974,VALID,0,VALID,96.6954,VALID,0,VALID,19.0969,VALID,174,VALID,0.901953,
2009-10-02, 02:09:04,VALID,916.963,VALID,0,VALID,96.7183,VALID,0,VALID,19.1164,VALID,174,VALID,1.0125,
2009-10-02, 02:10:04,VALID,916.969,VALID,0,VALID,96.764,VALID,0,VALID,19.1554,VALID,174,VALID,1.43867,
2009-10-02, 02:11:04,VALID,916.954,VALID,0,VALID,96.7259,VALID,0,VALID,19.1749,VALID,149,VALID,1.46445,
2009-10-02, 02:12:04,VALID,916.917,VALID,0,VALID,96.6573,VALID,0,VALID,19.1944,VALID,149,VALID,0.878516,
2009-10-02, 02:13:04,VALID,916.924,VALID,0,VALID,96.6268,VALID,0,VALID,19.2334,VALID,149,VALID,1.24805,
2009-10-02, 02:14:04,VALID,916.917,VALID,0,VALID,96.5582,VALID,0,VALID,19.2334,VALID,149,VALID,0.651563,
2009-10-02, 02:15:04,VALID,916.911,VALID,0,VALID,96.4819,VALID,0,VALID,19.2528,VALID,149,VALID,0.598828,
2009-10-02, 02:16:04,VALID,916.967,VALID,0,VALID,96.3905,VALID,0,VALID,19.2723,VALID,149,VALID,0.516016,
2009-10-02, 02:17:04,VALID,916.951,VALID,0,VALID,96.3066,VALID,0,VALID,19.2918,VALID,149,VALID,0.566406,
2009-10-02, 02:18:04,VALID,916.959,VALID,0,VALID,96.2151,VALID,0,VALID,19.2918,VALID,149,VALID,1.09922,
2009-10-02, 02:19:04,VALID,916.962,VALID,0,VALID,96.1389,VALID,0,VALID,19.2723,VALID,163,VALID,1.37422,
2009-10-02, 02:20:04,VALID,916.938,VALID,0,VALID,96.1389,VALID,0,VALID,19.2723,VALID,176,VALID,0.929688,
2009-10-02, 02:21:04,VALID,916.954,VALID,0,VALID,96.1236,VALID,0,VALID,19.2543,VALID,176,VALID,0.913672,
2009-10-02, 02:22:04,VALID,916.935,VALID,0,VALID,96.1923,VALID,0,VALID,19.2139,VALID,176,VALID,0.864844,
2009-10-02, 02:23:04,VALID,916.935,VALID,0,VALID,96.3447,VALID,0,VALID,19.2334,VALID,176,VALID,0.891797,
2009-10-02, 02:24:04,VALID,916.961,VALID,0,VALID,96.421,VALID,0,VALID,19.1929,VALID,176,VALID,0.846875,
2009-10-02, 02:25:04,VALID,916.969,VALID,0,VALID,96.4438,VALID,0,VALID,19.1944,VALID,176,VALID,1,
2009-10-02, 02:26:04,VALID,916.962,VALID,0,VALID,96.4972,VALID,0,VALID,19.1734,VALID,176,VALID,0.438672,
2009-10-02, 02:27:04,VALID,916.994,VALID,0,VALID,96.5201,VALID,0,VALID,19.1944,VALID,176,VALID,0.5625,
2009-10-02, 02:28:04,VALID,916.992,VALID,0,VALID,96.5963,VALID,0,VALID,19.1944,VALID,176,VALID,0.276953,
2009-10-02, 02:29:04,VALID,916.969,VALID,0,VALID,96.5963,VALID,0,VALID,19.1944,VALID,176,VALID,0,
2009-10-02, 02:30:04,VALID,916.99,VALID,0,VALID,96.642,VALID,0.107441,VALID,19.1749,VALID,176,VALID,0.242969,
2009-10-02, 02:31:04,VALID,916.998,VALID,0,VALID,96.6649,VALID,0,VALID,19.1944,VALID,176,VALID,0.331641,
2009-10-02, 02:32:04,VALID,917.007,VALID,0,VALID,96.6039,VALID,0,VALID,19.1944,VALID,176,VALID,0.685547,
2009-10-02, 02:33:04,VALID,916.97,VALID,0,VALID,96.5811,VALID,0,VALID,19.1554,VALID,176,VALID,0.668359,
2009-10-02, 02:34:04,VALID,916.956,VALID,0,VALID,96.5582,VALID,0,VALID,19.1149,VALID,176,VALID,0.666797,
2009-10-02, 02:35:04,VALID,917.013,VALID,0,VALID,96.5353,VALID,0,VALID,19.1359,VALID,176,VALID,0.855469,
2009-10-02, 02:36:04,VALID,916.984,VALID,0,VALID,96.5734,VALID,0,VALID,19.1164,VALID,176,VALID,0.817187,
2009-10-02, 02:37:04,VALID,917.015,VALID,0,VALID,96.642,VALID,0,VALID,19.1164,VALID,176,VALID,0.499609,
2009-10-02, 02:38:04,VALID,916.988,VALID,0,VALID,96.6497,VALID,0,VALID,19.1164,VALID,176,VALID,0.279297,
2009-10-02, 02:39:04,VALID,916.998,VALID,0,VALID,96.7411,VALID,0,VALID,19.0969,VALID,176,VALID,0.438281,
2009-10-02, 02:40:04,VALID,916.974,VALID,0,VALID,96.7564,VALID,0,VALID,19.0954,VALID,176,VALID,0.468359,
2009-10-02, 02:41:04,VALID,916.981,VALID,0,VALID,96.8021,VALID,0,VALID,19.1359,VALID,176,VALID,0.227734,
2009-10-02, 02:42:04,VALID,916.976,VALID,0,VALID,96.8021,VALID,0,VALID,19.0954,VALID,176,VALID,0.321094,
2009-10-02, 02:43:04,VALID,916.97,VALID,0,VALID,96.825,VALID,0,VALID,19.1359,VALID,176,VALID,0.114453,
2009-10-02, 02:44:04,VALID,916.913,VALID,0,VALID,96.8707,VALID,0,VALID,19.1359,VALID,176,VALID,0.265625,
2009-10-02, 02:45:04,VALID,916.925,VALID,0,VALID,96.8784,VALID,0,VALID,19.1359,VALID,176,VALID,0,
2009-10-02, 02:46:04,VALID,916.903,VALID,0,VALID,96.8707,VALID,0,VALID,19.1554,VALID,176,VALID,0.224219,
2009-10-02, 02:47:04,VALID,916.916,VALID,0,VALID,96.8479,VALID,0,VALID,19.1554,VALID,176,VALID,0.282031,
2009-10-02, 02:48:04,VALID,916.874,VALID,0,VALID,96.825,VALID,0,VALID,19.1359,VALID,176,VALID,0.426172,
2009-10-02, 02:49:04,VALID,916.876,VALID,0,VALID,96.8631,VALID,0,VALID,19.1749,VALID,176,VALID,0.176953,
2009-10-02, 02:50:04,VALID,916.832,VALID,0,VALID,96.8555,VALID,0,VALID,19.1749,VALID,176,VALID,0,
2009-10-02, 02:51:04,VALID,916.826,VALID,0,VALID,96.7945,VALID,0,VALID,19.1749,VALID,176,VALID,0.110156,
2009-10-02, 02:52:04,VALID,916.837,VALID,0,VALID,96.7945,VALID,0,VALID,19.1554,VALID,176,VALID,0.122656,
2009-10-02, 02:53:04,VALID,916.809,VALID,0,VALID,96.7564,VALID,0,VALID,19.1554,VALID,176,VALID,0,
2009-10-02, 02:54:04,VALID,916.804,VALID,0,VALID,96.6573,VALID,0,VALID,19.1149,VALID,176,VALID,0,
2009-10-02, 02:55:04,VALID,916.82,VALID,0,VALID,96.5734,VALID,0,VALID,19.1164,VALID,176,VALID,0.372656,
2009-10-02, 02:56:04,VALID,916.804,VALID,0,VALID,96.5963,VALID,0,VALID,19.0969,VALID,176,VALID,0.482812,
2009-10-02, 02:57:04,VALID,916.83,VALID,0,VALID,96.6039,VALID,0,VALID,19.0774,VALID,176,VALID,0.440234,
2009-10-02, 02:58:04,VALID,916.826,VALID,0,VALID,96.6115,VALID,0,VALID,19.0774,VALID,176,VALID,0.337891,
2009-10-02, 02:59:04,VALID,916.855,VALID,0,VALID,96.6725,VALID,0,VALID,19.0774,VALID,176,VALID,0.325,
2009-10-02, 03:00:04,VALID,916.831,VALID,0,VALID,96.7564,VALID,0,VALID,19.0774,VALID,176,VALID,0,
2009-10-02, 03:01:04,VALID,916.823,VALID,0,VALID,96.8174,VALID,0,VALID,19.0969,VALID,176,VALID,0,
2009-10-02, 03:02:04,VALID,916.825,VALID,0,VALID,96.8403,VALID,0,VALID,19.1164,VALID,176,VALID,0,
2009-10-02, 03:03:04,VALID,916.814,VALID,0,VALID,96.8326,VALID,0,VALID,19.1164,VALID,176,VALID,0,
2009-10-02, 03:04:04,VALID,916.807,VALID,0,VALID,96.8403,VALID,0,VALID,19.1359,VALID,176,VALID,0,
2009-10-02, 03:05:04,VALID,916.855,VALID,0,VALID,96.7945,VALID,0,VALID,19.1164,VALID,176,VALID,0,
2009-10-02, 03:06:04,VALID,916.846,VALID,0,VALID,96.7945,VALID,0,VALID,19.1164,VALID,176,VALID,0,
2009-10-02, 03:07:04,VALID,916.866,VALID,0,VALID,96.8174,VALID,0,VALID,19.0969,VALID,176,VALID,0.003125,
2009-10-02, 03:08:04,VALID,916.893,VALID,0,VALID,96.7183,VALID,0,VALID,19.0564,VALID,176,VALID,0.308594,
2009-10-02, 03:09:04,VALID,916.885,VALID,0,VALID,96.6573,VALID,0,VALID,19.0579,VALID,176,VALID,0.607031,
2009-10-02, 03:10:04,VALID,916.886,VALID,0,VALID,96.6192,VALID,0,VALID,19.0175,VALID,176,VALID,0.717578,
2009-10-02, 03:11:04,VALID,916.903,VALID,0,VALID,96.6725,VALID,0,VALID,19.0189,VALID,176,VALID,0.732422,
2009-10-02, 03:12:04,VALID,916.89,VALID,0,VALID,96.6802,VALID,0,VALID,18.9994,VALID,176,VALID,0.719922,
2009-10-02, 03:13:04,VALID,916.885,VALID,0,VALID,96.8021,VALID,0,VALID,19.0189,VALID,176,VALID,0.813672,
2009-10-02, 03:14:04,VALID,916.906,VALID,0,VALID,96.7869,VALID,0,VALID,19.0189,VALID,176,VALID,0.848828,
2009-10-02, 03:15:04,VALID,916.87,VALID,0,VALID,96.7488,VALID,0,VALID,18.9994,VALID,176,VALID,0.487891,
2009-10-02, 03:16:04,VALID,916.87,VALID,0,VALID,96.8403,VALID,0,VALID,19.0189,VALID,176,VALID,0.693359,
2009-10-02, 03:17:04,VALID,916.874,VALID,0,VALID,96.886,VALID,0,VALID,19.0384,VALID,176,VALID,0.380078,
2009-10-02, 03:18:04,VALID,916.841,VALID,0,VALID,96.9165,VALID,0,VALID,19.0384,VALID,176,VALID,0.135547,
2009-10-02, 03:19:04,VALID,916.829,VALID,0,VALID,96.9394,VALID,0,VALID,19.0774,VALID,176,VALID,0,
2009-10-02, 03:20:04,VALID,916.802,VALID,0,VALID,96.9546,VALID,0,VALID,19.0969,VALID,176,VALID,0,
2009-10-02, 03:21:04,VALID,916.765,VALID,0,VALID,96.9546,VALID,0,VALID,19.1164,VALID,176,VALID,0,
2009-10-02, 03:22:04,VALID,916.798,VALID,0,VALID,96.9546,VALID,0,VALID,19.1373,VALID,176,VALID,0,
2009-10-02, 03:23:04,VALID,916.771,VALID,0,VALID,96.9775,VALID,0,VALID,19.1554,VALID,176,VALID,0,
2009-10-02, 03:24:04,VALID,916.786,VALID,0,VALID,96.9851,VALID,0,VALID,19.1554,VALID,176,VALID,0,
2009-10-02, 03:25:04,VALID,916.772,VALID,0,VALID,96.9775,VALID,0,VALID,19.1539,VALID,176,VALID,0,
2009-10-02, 03:26:04,VALID,916.789,VALID,0,VALID,96.9622,VALID,0,VALID,19.1749,VALID,176,VALID,0.335547,
2009-10-02, 03:27:04,VALID,916.846,VALID,0,VALID,96.9394,VALID,0,VALID,19.1749,VALID,176,VALID,0.304297,
2009-10-02, 03:28:04,VALID,916.805,VALID,0,VALID,96.8707,VALID,0,VALID,19.1344,VALID,176,VALID,0.244922,
2009-10-02, 03:29:04,VALID,916.814,VALID,0,VALID,96.9089,VALID,0,VALID,19.1344,VALID,176,VALID,0.463281,
2009-10-02, 03:30:04,VALID,916.803,VALID,0,VALID,96.9165,VALID,0,VALID,19.1344,VALID,176,VALID,0.455078,
2009-10-02, 03:31:04,VALID,916.822,VALID,0,VALID,96.9317,VALID,0,VALID,19.1539,VALID,176,VALID,0.299219,
2009-10-02, 03:32:04,VALID,916.799,VALID,0,VALID,96.9394,VALID,0,VALID,19.1539,VALID,176,VALID,0.406641,
2009-10-02, 03:33:04,VALID,916.844,VALID,0,VALID,96.9317,VALID,0,VALID,19.1344,VALID,176,VALID,0.435937,
2009-10-02, 03:34:04,VALID,916.807,VALID,0,VALID,96.8784,VALID,0,VALID,19.1539,VALID,176,VALID,0.501562,
2009-10-02, 03:35:04,VALID,916.802,VALID,0,VALID,96.9012,VALID,0,VALID,19.1554,VALID,176,VALID,0.433203,
2009-10-02, 03:36:04,VALID,916.816,VALID,0,VALID,96.9546,VALID,0,VALID,19.1554,VALID,176,VALID,0.201562,
2009-10-02, 03:37:04,VALID,916.796,VALID,0,VALID,97.0003,VALID,0,VALID,19.1554,VALID,176,VALID,0.126172,
2009-10-02, 03:38:04,VALID,916.79,VALID,0,VALID,97.0003,VALID,0.107441,VALID,19.1749,VALID,176,VALID,0,
2009-10-02, 03:39:04,VALID,916.786,VALID,0,VALID,96.9698,VALID,0,VALID,19.1554,VALID,176,VALID,0,
2009-10-02, 03:40:04,VALID,916.798,VALID,0,VALID,97.0232,VALID,0,VALID,19.1749,VALID,176,VALID,0,
2009-10-02, 03:41:04,VALID,916.802,VALID,0,VALID,97.008,VALID,0.107441,VALID,19.1539,VALID,176,VALID,0,
2009-10-02, 03:42:04,VALID,916.784,VALID,0,VALID,97.0003,VALID,0,VALID,19.1749,VALID,176,VALID,0.0136719,
2009-10-02, 03:43:04,VALID,916.808,VALID,0,VALID,96.9622,VALID,0,VALID,19.1554,VALID,176,VALID,0.407813,
2009-10-02, 03:44:04,VALID,916.81,VALID,0,VALID,96.9927,VALID,0,VALID,19.1749,VALID,176,VALID,0.176172,
2009-10-02, 03:45:04,VALID,916.82,VALID,0,VALID,96.9546,VALID,0,VALID,19.1554,VALID,176,VALID,0.178906,
2009-10-02, 03:46:04,VALID,916.829,VALID,0,VALID,96.886,VALID,0,VALID,19.1554,VALID,176,VALID,0.398828,